COSMOS 2251 DEB

Satellite information

Favourite Embed

Satellite Type and Status

DEBRISIN ORBIT

Key statistics

Satellite COSMOS 2251 DEB at a glance.

Uptime

11649

Days in orbit

Revolutions

≈ 14.5

Per day

Orbit

LEO

Low Earth Orbit

Inclination

74.0

Latest

Satellite identification and parameters

Extended collection of information and parameters for COSMOS 2251 DEB.

Object identification

Identified? True

Debris? True

Object name: COSMOS 2251 DEB

International designator: 1993-036KM

Object number (NORAD): 34116

Object ID (CCSDS): 34116

Country: COMMONWEALTH OF INDEPENDENT STATES (CIS)

Current information (Y/N): Y

RCS size: SMALL

Orbital parameters

Period: 99.21 minutes

Inclination: 74.0417 deg

SMA: 7099.011 km

Apoapsis: 730.103 km

Periapsis: 711.65 km

RAAN: 235.3298 deg

Eccentricy: 0.0012997

Argument of periapsis: 5.3749 deg

Mean anomaly: 105.5541 deg

Mean motion: 14.51462915 rev/day

Mean motion (dot): 0.00003292 rev/day2

B* drag term: 0.00082979 1/REarth

Two-line elements (TLE)

Creation date: May 8, 2025, 3:01 a.m.

Reference frame: TEME

Reference center: EARTH

Epoch: May 7, 2025, 4:52 p.m. UTC

TLE line 0: 0 COSMOS 2251 DEB

TLE line 1: 1 34116U 93036KM 25127.70281205 .00003292 00000-0 82979-3 0 9992

TLE line 2: 2 34116 74.0417 235.3298 0012997 5.3749 105.5541 14.51462915853070

Live tracking on map

Real-time ground track for satellite COSMOS 2251 DEB.

In-orbit conjunctions

A list of the most updated potential collisions computed for object COSMOS 2251 DEB.

Target Orbit TCA Probability of collision Miss distance Type
NOAA 17 DEB SSO 2024-09-26 01:09:11 0.0008042533 108.0 (m) DEBRIS
ATLAS 5 CENTAUR R/B SSO 2024-09-02 00:56:14 0.0005709375 638.0 (m) ROCKET BODY

Associated space launch

Military communications satellite. Destroyed in a collision with Iridium 33.

COSMOS 2251 DEB was lifted into orbit during the mission ‘Kosmos-3M | Strela-2M 51’, on board a Kosmos-3M space rocket.

The launch took place on June 16, 1993, 4:17 a.m. from 132/1 (132L).

For more information about the launch, click the button.

Launch to space Kosmos-3M | Strela-2M 51
Kosmos-3M | Strela-2M 51

Agency: N/A

Status: Launch Successful

Launch date: June 16, 1993, 4:17 a.m. UTC

Rocket: Kosmos-3M

Launch pad: 132/1 (132L)

Location: Plesetsk Cosmodrome, Russian Federation

...

Latest news about this satellite

There are no fresh news available about this satellite. Check back as we update our databases every day.


Newsletter sign-up

Weekly statistics, charts and insights to help you stay on top of the space industry.